Year,Month,Day,Hour,Minute,Value (Times are PST for temperature in C)
2016,08,16,00,00,15.60
2016,08,16,00,01,15.60
2016,08,16,00,02,15.60
2016,08,16,00,03,15.60
2016,08,16,00,04,15.60
2016,08,16,00,05,15.60
2016,08,16,00,06,15.60
2016,08,16,00,07,15.50
2016,08,16,00,08,15.50
2016,08,16,00,09,15.50
2016,08,16,00,10,15.50
2016,08,16,00,11,15.50
2016,08,16,00,12,15.50
2016,08,16,00,13,15.50
2016,08,16,00,14,15.50
2016,08,16,00,15,15.50
2016,08,16,00,16,15.50
2016,08,16,00,17,15.50
2016,08,16,00,18,15.50
2016,08,16,00,19,15.50
2016,08,16,00,20,15.40
2016,08,16,00,21,15.40
2016,08,16,00,22,15.40
2016,08,16,00,23,15.40
2016,08,16,00,24,15.40
2016,08,16,00,25,15.40
2016,08,16,00,26,15.40
2016,08,16,00,27,15.40
2016,08,16,00,28,15.40
2016,08,16,00,29,15.40
2016,08,16,00,30,15.40
2016,08,16,00,31,15.30
2016,08,16,00,32,15.30
2016,08,16,00,33,15.30
2016,08,16,00,34,15.30
2016,08,16,00,35,15.30
2016,08,16,00,36,15.30
2016,08,16,00,37,15.30
2016,08,16,00,38,15.30
2016,08,16,00,39,15.30
2016,08,16,00,40,15.30
2016,08,16,00,41,15.30
2016,08,16,00,42,15.30
2016,08,16,00,43,15.30
2016,08,16,00,44,15.30
2016,08,16,00,45,15.30
2016,08,16,00,46,15.20
2016,08,16,00,47,15.20
2016,08,16,00,48,15.20
2016,08,16,00,49,15.20
2016,08,16,00,50,15.20
2016,08,16,00,51,15.20
2016,08,16,00,52,15.20
2016,08,16,00,53,15.20
2016,08,16,00,54,15.20
2016,08,16,00,55,15.20
2016,08,16,00,56,15.20
2016,08,16,00,57,15.20
2016,08,16,00,58,15.20
2016,08,16,00,59,15.20
2016,08,16,01,00,15.20
2016,08,16,01,01,15.20
2016,08,16,01,02,15.20
2016,08,16,01,03,15.20
2016,08,16,01,04,15.20
2016,08,16,01,05,15.10
2016,08,16,01,06,15.10
2016,08,16,01,07,15.10
2016,08,16,01,08,15.10
2016,08,16,01,09,15.10
2016,08,16,01,10,15.10
2016,08,16,01,11,15.10
2016,08,16,01,12,15.10
2016,08,16,01,13,15.10
2016,08,16,01,14,15.10
2016,08,16,01,15,15.10
2016,08,16,01,16,15.10
2016,08,16,01,17,15.10
2016,08,16,01,18,15.10
2016,08,16,01,19,15.10
2016,08,16,01,20,15.10
2016,08,16,01,21,15.10
2016,08,16,01,22,15.10
2016,08,16,01,23,15.10
2016,08,16,01,24,15.00
2016,08,16,01,25,15.00
2016,08,16,01,26,15.00
2016,08,16,01,27,15.00
2016,08,16,01,28,15.00
2016,08,16,01,29,14.90
2016,08,16,01,30,14.90
2016,08,16,01,31,14.90
2016,08,16,01,32,14.90
2016,08,16,01,33,14.90
2016,08,16,01,34,14.90
2016,08,16,01,35,14.90
2016,08,16,01,36,14.90
2016,08,16,01,37,14.80
2016,08,16,01,38,14.80
2016,08,16,01,39,14.80
2016,08,16,01,40,14.80
2016,08,16,01,41,14.80
2016,08,16,01,42,14.80
2016,08,16,01,43,14.80
2016,08,16,01,44,14.80
2016,08,16,01,45,14.80
2016,08,16,01,46,14.80
2016,08,16,01,47,14.80
2016,08,16,01,48,14.80
2016,08,16,01,49,14.70
2016,08,16,01,50,14.70
2016,08,16,01,51,14.70
2016,08,16,01,52,14.70
2016,08,16,01,53,14.70
2016,08,16,01,54,14.70
2016,08,16,01,55,14.70
2016,08,16,01,56,14.60
2016,08,16,01,57,14.60
2016,08,16,01,58,14.60
2016,08,16,01,59,14.60
2016,08,16,02,00,14.60
2016,08,16,02,01,14.60
2016,08,16,02,02,14.50
2016,08,16,02,03,14.50
2016,08,16,02,04,14.50
2016,08,16,02,05,14.50
2016,08,16,02,06,14.50
2016,08,16,02,07,14.50
2016,08,16,02,08,14.40
2016,08,16,02,09,14.40
2016,08,16,02,10,14.40
2016,08,16,02,11,14.40
2016,08,16,02,12,14.40
2016,08,16,02,13,14.40
2016,08,16,02,14,14.40
2016,08,16,02,15,14.40
2016,08,16,02,16,14.30
2016,08,16,02,17,14.30
2016,08,16,02,18,14.30
2016,08,16,02,19,14.30
2016,08,16,02,20,14.30
2016,08,16,02,21,14.30
2016,08,16,02,22,14.30
2016,08,16,02,23,14.30
2016,08,16,02,24,14.30
2016,08,16,02,25,14.30
2016,08,16,02,26,14.30
2016,08,16,02,27,14.30
2016,08,16,02,28,14.30
2016,08,16,02,29,14.30
2016,08,16,02,30,14.30
2016,08,16,02,31,14.30
2016,08,16,02,32,14.30
2016,08,16,02,33,14.30
2016,08,16,02,34,14.30
2016,08,16,02,35,14.30
2016,08,16,02,36,14.30
2016,08,16,02,37,14.30
2016,08,16,02,38,14.30
2016,08,16,02,39,14.30
2016,08,16,02,40,14.30
2016,08,16,02,41,14.30
2016,08,16,02,42,14.30
2016,08,16,02,43,14.30
2016,08,16,02,44,14.30
2016,08,16,02,45,14.30
2016,08,16,02,46,14.30
2016,08,16,02,47,14.30
2016,08,16,02,48,14.30
2016,08,16,02,49,14.30
2016,08,16,02,50,14.20
2016,08,16,02,51,14.20
2016,08,16,02,52,14.20
2016,08,16,02,53,14.20
2016,08,16,02,54,14.20
2016,08,16,02,55,14.20
2016,08,16,02,56,14.20
2016,08,16,02,57,14.20
2016,08,16,02,58,14.20
2016,08,16,02,59,14.20
2016,08,16,03,00,14.20
2016,08,16,03,01,14.20
2016,08,16,03,02,14.20
2016,08,16,03,06,14.20
2016,08,16,03,07,14.20
2016,08,16,03,08,14.20
2016,08,16,03,09,14.20
2016,08,16,03,10,14.20
2016,08,16,03,11,14.20
2016,08,16,03,12,14.20
2016,08,16,03,13,14.20
2016,08,16,03,14,14.20
2016,08,16,03,15,14.20
2016,08,16,03,16,14.20
2016,08,16,03,17,14.20
2016,08,16,03,18,14.20
2016,08,16,03,19,14.20
2016,08,16,03,20,14.20
2016,08,16,03,21,14.20
2016,08,16,03,22,14.20
2016,08,16,03,23,14.20
2016,08,16,03,24,14.20
2016,08,16,03,25,14.20
2016,08,16,03,26,14.20
2016,08,16,03,27,14.20
2016,08,16,03,28,14.10
2016,08,16,03,29,14.10
2016,08,16,03,30,14.10
2016,08,16,03,31,14.10
2016,08,16,03,32,14.10
2016,08,16,03,33,14.10
2016,08,16,03,34,14.10
2016,08,16,03,35,14.10
2016,08,16,03,36,14.10
2016,08,16,03,37,14.10
2016,08,16,03,38,14.10
2016,08,16,03,39,14.10
2016,08,16,03,40,14.10
2016,08,16,03,41,14.10
2016,08,16,03,42,14.10
2016,08,16,03,43,14.10
2016,08,16,03,44,14.10
2016,08,16,03,45,14.10
2016,08,16,03,46,14.10
2016,08,16,03,47,14.10
2016,08,16,03,48,14.10
2016,08,16,03,49,14.10
2016,08,16,03,50,14.10
2016,08,16,03,51,14.10
2016,08,16,03,52,14.10
2016,08,16,03,53,14.10
2016,08,16,03,54,14.10
2016,08,16,03,55,14.10
2016,08,16,03,56,14.00
2016,08,16,03,57,14.00
2016,08,16,03,58,14.00
2016,08,16,03,59,14.00
2016,08,16,04,00,14.00
2016,08,16,04,01,13.90
2016,08,16,04,02,13.90
2016,08,16,04,03,13.90
2016,08,16,04,04,13.90
2016,08,16,04,05,13.90
2016,08,16,04,06,13.90
2016,08,16,04,07,13.90
2016,08,16,04,08,13.90
2016,08,16,04,09,13.90
2016,08,16,04,10,13.90
2016,08,16,04,11,13.90
2016,08,16,04,12,13.90
2016,08,16,04,13,13.90
2016,08,16,04,14,13.90
2016,08,16,04,15,13.90
2016,08,16,04,16,13.90
2016,08,16,04,17,13.80
2016,08,16,04,18,13.80
2016,08,16,04,19,13.80
2016,08,16,04,20,13.80
2016,08,16,04,21,13.80
2016,08,16,04,22,13.80
2016,08,16,04,23,13.80
2016,08,16,04,24,13.80
2016,08,16,04,25,13.80
2016,08,16,04,26,13.80
2016,08,16,04,27,13.80
2016,08,16,04,28,13.80
2016,08,16,04,29,13.80
2016,08,16,04,30,13.80
2016,08,16,04,31,13.80
2016,08,16,04,32,13.80
2016,08,16,04,33,13.80
2016,08,16,04,34,13.80
2016,08,16,04,35,13.80
2016,08,16,04,36,13.80
2016,08,16,04,37,13.80
2016,08,16,04,38,13.80
2016,08,16,04,39,13.80
2016,08,16,04,40,13.80
2016,08,16,04,41,13.80
2016,08,16,04,42,13.80
2016,08,16,04,43,13.70
2016,08,16,04,44,13.70
2016,08,16,04,45,13.70
2016,08,16,04,46,13.70
2016,08,16,04,47,13.70
2016,08,16,04,48,13.70
2016,08,16,04,49,13.70
2016,08,16,04,50,13.80
2016,08,16,04,51,13.80
2016,08,16,04,52,13.80
2016,08,16,04,53,13.80
2016,08,16,04,54,13.80
2016,08,16,04,55,13.80
2016,08,16,04,56,13.80
2016,08,16,04,57,13.80
2016,08,16,04,58,13.80
2016,08,16,04,59,13.80
2016,08,16,05,00,13.80
2016,08,16,05,01,13.80
2016,08,16,05,02,13.80
2016,08,16,05,03,13.80
2016,08,16,05,04,13.80
2016,08,16,05,05,13.80
2016,08,16,05,06,13.80
2016,08,16,05,07,13.90
2016,08,16,05,08,13.90
2016,08,16,05,09,13.90
2016,08,16,05,10,13.90
2016,08,16,05,11,13.90
2016,08,16,05,12,13.80
2016,08,16,05,13,13.80
2016,08,16,05,14,13.80
2016,08,16,05,15,13.80
2016,08,16,05,16,13.80
2016,08,16,05,17,13.80
2016,08,16,05,18,13.90
2016,08,16,05,19,13.90
2016,08,16,05,20,13.90
2016,08,16,05,21,13.90
2016,08,16,05,22,13.90
2016,08,16,05,23,13.90
2016,08,16,05,24,13.90
2016,08,16,05,25,14.00
2016,08,16,05,26,14.00
2016,08,16,05,27,13.90
2016,08,16,05,28,13.90
2016,08,16,05,29,13.90
2016,08,16,05,30,14.00
2016,08,16,05,31,14.00
2016,08,16,05,32,14.00
2016,08,16,05,33,13.90
2016,08,16,05,34,13.90
2016,08,16,05,35,13.90
2016,08,16,05,36,13.90
2016,08,16,05,37,13.90
2016,08,16,05,38,13.90
2016,08,16,05,39,14.00
2016,08,16,05,40,14.00
2016,08,16,05,41,14.10
2016,08,16,05,42,14.10
2016,08,16,05,43,14.20
2016,08,16,05,44,14.20
2016,08,16,05,45,14.30
2016,08,16,05,46,14.30
2016,08,16,05,47,14.30
2016,08,16,05,48,14.40
2016,08,16,05,49,14.40
2016,08,16,05,50,14.40
2016,08,16,05,51,14.40
2016,08,16,05,52,14.50
2016,08,16,05,53,14.50
2016,08,16,05,54,14.60
2016,08,16,05,55,14.70
2016,08,16,05,56,14.70
2016,08,16,05,57,14.70
2016,08,16,05,58,14.70
2016,08,16,05,59,14.70
2016,08,16,06,00,14.80
2016,08,16,06,01,14.80
2016,08,16,06,02,14.80
2016,08,16,06,03,14.80
2016,08,16,06,04,14.80
2016,08,16,06,05,14.90
2016,08,16,06,06,14.90
2016,08,16,06,07,15.00
2016,08,16,06,08,15.00
2016,08,16,06,09,15.00
2016,08,16,06,10,15.10
2016,08,16,06,11,15.10
2016,08,16,06,12,15.10
2016,08,16,06,13,15.10
2016,08,16,06,14,15.10
2016,08,16,06,15,15.20
2016,08,16,06,16,15.20
2016,08,16,06,17,15.20
2016,08,16,06,18,15.20
2016,08,16,06,19,15.20
2016,08,16,06,20,15.30
2016,08,16,06,21,15.30
2016,08,16,06,22,15.30
2016,08,16,06,23,15.30
2016,08,16,06,24,15.30
2016,08,16,06,25,15.30
2016,08,16,06,26,15.30
2016,08,16,06,27,15.30
2016,08,16,06,28,15.30
2016,08,16,06,29,15.30
2016,08,16,06,30,15.30
2016,08,16,06,31,15.30
2016,08,16,06,32,15.30
2016,08,16,06,33,15.30
2016,08,16,06,34,15.30
2016,08,16,06,35,15.30
2016,08,16,06,36,15.30
2016,08,16,06,37,15.30
2016,08,16,06,38,15.30
2016,08,16,06,39,15.30
2016,08,16,06,40,15.30
2016,08,16,06,41,15.30
2016,08,16,06,42,15.30
2016,08,16,06,43,15.30
2016,08,16,06,44,15.30
2016,08,16,06,45,15.40
2016,08,16,06,46,15.40
2016,08,16,06,47,15.50
2016,08,16,06,48,15.50
2016,08,16,06,49,15.60
2016,08,16,06,50,15.60
2016,08,16,06,51,15.70
2016,08,16,06,52,15.70
2016,08,16,06,53,15.70
2016,08,16,06,54,15.80
2016,08,16,06,55,15.80
2016,08,16,06,56,15.80
2016,08,16,06,57,15.90
2016,08,16,06,58,15.90
2016,08,16,06,59,15.90
2016,08,16,07,00,16.00
2016,08,16,07,01,16.00
2016,08,16,07,02,16.10
2016,08,16,07,03,16.10
2016,08,16,07,04,16.20
2016,08,16,07,05,16.20
2016,08,16,07,06,16.30
2016,08,16,07,07,16.30
2016,08,16,07,08,16.40
2016,08,16,07,09,16.40
2016,08,16,07,10,16.50
2016,08,16,07,11,16.60
2016,08,16,07,12,16.70
2016,08,16,07,13,16.80
2016,08,16,07,14,16.80
2016,08,16,07,15,16.90
2016,08,16,07,16,16.90
2016,08,16,07,17,17.00
2016,08,16,07,18,17.10
2016,08,16,07,19,17.10
2016,08,16,07,20,17.20
2016,08,16,07,21,17.30
2016,08,16,07,22,17.30
2016,08,16,07,23,17.50
2016,08,16,07,24,17.60
2016,08,16,07,25,17.70
2016,08,16,07,26,17.80
2016,08,16,07,27,17.90
2016,08,16,07,28,18.00
2016,08,16,07,29,18.10
2016,08,16,07,30,18.20
2016,08,16,07,31,18.20
2016,08,16,07,32,18.10
2016,08,16,07,33,18.10
2016,08,16,07,34,18.10
2016,08,16,07,35,18.10
2016,08,16,07,36,18.10
2016,08,16,07,37,18.20
2016,08,16,07,38,18.20
2016,08,16,07,39,18.30
2016,08,16,07,40,18.40
2016,08,16,07,41,18.50
2016,08,16,07,42,18.50
2016,08,16,07,43,18.60
2016,08,16,07,44,18.70
2016,08,16,07,45,18.70
2016,08,16,07,46,18.80
2016,08,16,07,47,18.80
2016,08,16,07,48,18.90
2016,08,16,07,49,18.90
2016,08,16,07,50,18.90
2016,08,16,07,51,18.90
2016,08,16,07,52,18.90
2016,08,16,07,53,18.90
2016,08,16,07,54,18.90
2016,08,16,07,55,18.90
2016,08,16,07,56,18.90
2016,08,16,07,57,18.90
2016,08,16,07,58,19.00
2016,08,16,07,59,19.00
2016,08,16,08,00,19.10
2016,08,16,08,01,19.10
2016,08,16,08,02,19.10
2016,08,16,08,03,19.20
2016,08,16,08,04,19.20
2016,08,16,08,05,19.20
2016,08,16,08,06,19.20
2016,08,16,08,07,19.30
2016,08,16,08,08,19.30
2016,08,16,08,09,19.30
2016,08,16,08,10,19.40
2016,08,16,08,11,19.40
2016,08,16,08,12,19.50
2016,08,16,08,13,19.60
2016,08,16,08,14,19.70
2016,08,16,08,15,19.80
2016,08,16,08,16,19.80
2016,08,16,08,17,19.90
2016,08,16,08,18,19.90
2016,08,16,08,19,20.00
2016,08,16,08,20,20.10
2016,08,16,08,21,20.10
2016,08,16,08,22,20.10
2016,08,16,08,23,20.20
2016,08,16,08,24,20.10
2016,08,16,08,25,20.20
2016,08,16,08,26,20.20
2016,08,16,08,27,20.20
2016,08,16,08,28,20.30
2016,08,16,08,29,20.30
2016,08,16,08,30,20.50
2016,08,16,08,31,20.60
2016,08,16,08,32,20.70
2016,08,16,08,33,20.80
2016,08,16,08,34,20.80
2016,08,16,08,35,20.90
2016,08,16,08,36,20.90
2016,08,16,08,37,20.80
2016,08,16,08,38,20.80
2016,08,16,08,39,20.90
2016,08,16,08,40,20.90
2016,08,16,08,41,20.90
2016,08,16,08,42,20.90
2016,08,16,08,43,20.90
2016,08,16,08,44,20.90
2016,08,16,08,45,20.90
2016,08,16,08,46,20.90
2016,08,16,08,47,20.90
2016,08,16,08,48,20.90
2016,08,16,08,49,20.90
2016,08,16,08,50,20.90
2016,08,16,08,51,21.00
2016,08,16,08,52,21.00
2016,08,16,08,53,21.10
2016,08,16,08,54,21.20
2016,08,16,08,55,21.30
2016,08,16,08,56,21.40
2016,08,16,08,57,21.40
2016,08,16,08,58,21.50
2016,08,16,08,59,21.40
2016,08,16,09,00,21.40
2016,08,16,09,01,21.40
2016,08,16,09,02,21.40
2016,08,16,09,03,21.50
2016,08,16,09,04,21.50
2016,08,16,09,05,21.50
2016,08,16,09,06,21.50
2016,08,16,09,07,21.50
2016,08,16,09,08,21.60
2016,08,16,09,09,21.60
2016,08,16,09,10,21.60
2016,08,16,09,11,21.60
2016,08,16,09,12,21.70
2016,08,16,09,13,21.80
2016,08,16,09,14,21.80
2016,08,16,09,15,21.80
2016,08,16,09,16,21.90
2016,08,16,09,17,22.00
2016,08,16,09,18,22.10
2016,08,16,09,19,22.20
2016,08,16,09,20,22.20
2016,08,16,09,21,22.20
2016,08,16,09,22,22.20
2016,08,16,09,23,22.10
2016,08,16,09,24,22.10
2016,08,16,09,25,22.10
2016,08,16,09,26,22.10
2016,08,16,09,27,22.00
2016,08,16,09,28,22.10
2016,08,16,09,29,22.10
2016,08,16,09,30,22.10
2016,08,16,09,31,22.20
2016,08,16,09,32,22.30
2016,08,16,09,33,22.40
2016,08,16,09,34,22.50
2016,08,16,09,35,22.60
2016,08,16,09,36,22.70
2016,08,16,09,37,22.80
2016,08,16,09,38,22.80
2016,08,16,09,39,22.70
2016,08,16,09,40,22.70
2016,08,16,09,41,22.80
2016,08,16,09,42,22.80
2016,08,16,09,43,22.80
2016,08,16,09,44,22.80
2016,08,16,09,45,22.80
2016,08,16,09,46,22.80
2016,08,16,09,47,22.80
2016,08,16,09,48,22.80
2016,08,16,09,49,22.70
2016,08,16,09,50,22.70
2016,08,16,09,51,22.70
2016,08,16,09,52,22.70
2016,08,16,09,53,22.60
2016,08,16,09,54,22.60
2016,08,16,09,55,22.70
2016,08,16,09,56,22.80
2016,08,16,09,57,22.90
2016,08,16,09,58,23.00
2016,08,16,09,59,23.20
2016,08,16,10,00,23.30
2016,08,16,10,01,23.20
2016,08,16,10,02,23.20
2016,08,16,10,03,23.20
2016,08,16,10,04,23.20
2016,08,16,10,05,23.20
2016,08,16,10,06,23.40
2016,08,16,10,07,23.50
2016,08,16,10,08,23.60
2016,08,16,10,09,23.60
2016,08,16,10,10,23.70
2016,08,16,10,11,23.80
2016,08,16,10,12,23.80
2016,08,16,10,13,23.80
2016,08,16,10,14,23.70
2016,08,16,10,15,23.70
2016,08,16,10,16,23.60
2016,08,16,10,17,23.60
2016,08,16,10,18,23.60
2016,08,16,10,19,23.50
2016,08,16,10,20,23.30
2016,08,16,10,21,23.20
2016,08,16,10,22,23.10
2016,08,16,10,23,23.00
2016,08,16,10,24,23.00
2016,08,16,10,25,22.90
2016,08,16,10,26,22.90
2016,08,16,10,27,23.00
2016,08,16,10,28,23.10
2016,08,16,10,29,23.10
2016,08,16,10,30,23.20
2016,08,16,10,31,23.20
2016,08,16,10,32,23.10
2016,08,16,10,33,23.10
2016,08,16,10,34,23.10
2016,08,16,10,35,23.00
2016,08,16,10,36,23.00
2016,08,16,10,37,23.00
2016,08,16,10,38,23.10
2016,08,16,10,39,23.20
2016,08,16,10,40,23.30
2016,08,16,10,41,23.30
2016,08,16,10,42,23.30
2016,08,16,10,43,23.40
2016,08,16,10,44,23.50
2016,08,16,10,45,23.50
2016,08,16,10,46,23.50
2016,08,16,10,47,23.60
2016,08,16,10,48,23.70
2016,08,16,10,49,23.80
2016,08,16,10,50,23.70
2016,08,16,10,51,23.70
2016,08,16,10,52,23.60
2016,08,16,10,53,23.60
2016,08,16,10,54,23.60
2016,08,16,10,55,23.60
2016,08,16,10,56,23.70
2016,08,16,10,57,23.90
2016,08,16,10,58,24.00
2016,08,16,10,59,24.20
2016,08,16,11,00,24.30
2016,08,16,11,01,24.50
2016,08,16,11,02,24.60
2016,08,16,11,03,24.60
2016,08,16,11,04,24.50
2016,08,16,11,05,24.40
2016,08,16,11,06,24.40
2016,08,16,11,07,24.30
2016,08,16,11,08,24.20
2016,08,16,11,09,24.10
2016,08,16,11,10,23.90
2016,08,16,11,11,23.80
2016,08,16,11,12,23.50
2016,08,16,11,13,23.20
2016,08,16,11,14,23.00
2016,08,16,11,15,22.80
2016,08,16,11,16,22.60
2016,08,16,11,17,22.40
2016,08,16,11,18,22.30
2016,08,16,11,19,22.20
2016,08,16,11,20,22.10
2016,08,16,11,21,22.00
2016,08,16,11,22,21.90
2016,08,16,11,23,21.90
2016,08,16,11,24,21.90
2016,08,16,11,25,21.90
2016,08,16,11,26,21.90
2016,08,16,11,27,22.00
2016,08,16,11,28,22.10
2016,08,16,11,29,22.20
2016,08,16,11,30,22.30
2016,08,16,11,31,22.40
2016,08,16,11,32,22.60
2016,08,16,11,33,22.70
2016,08,16,11,34,22.80
2016,08,16,11,35,22.80
2016,08,16,11,36,22.70
2016,08,16,11,37,22.50
2016,08,16,11,38,22.40
2016,08,16,11,39,22.30
2016,08,16,11,40,22.20
2016,08,16,11,41,22.20
2016,08,16,11,42,22.30
2016,08,16,11,43,22.40
2016,08,16,11,44,22.40
2016,08,16,11,45,22.30
2016,08,16,11,46,22.20
2016,08,16,11,47,22.30
2016,08,16,11,48,22.20
2016,08,16,11,49,22.20
2016,08,16,11,50,22.10
2016,08,16,11,51,22.00
2016,08,16,11,52,21.90
2016,08,16,11,53,21.90
2016,08,16,11,54,21.90
2016,08,16,11,55,22.00
2016,08,16,11,56,22.10
2016,08,16,11,57,22.20
2016,08,16,11,58,22.30
2016,08,16,11,59,22.30
2016,08,16,12,00,22.30
2016,08,16,12,01,22.30
2016,08,16,12,02,22.30
2016,08,16,12,03,22.20
2016,08,16,12,04,22.20
2016,08,16,12,05,22.20
2016,08,16,12,06,22.20
2016,08,16,12,07,22.20
2016,08,16,12,08,22.20
2016,08,16,12,09,22.30
2016,08,16,12,10,22.40
2016,08,16,12,11,22.40
2016,08,16,12,12,22.50
2016,08,16,12,13,22.50
2016,08,16,12,14,22.60
2016,08,16,12,15,22.60
2016,08,16,12,16,22.60
2016,08,16,12,17,22.60
2016,08,16,12,18,22.60
2016,08,16,12,19,22.70
2016,08,16,12,20,22.70
2016,08,16,12,21,22.80
2016,08,16,12,22,22.90
2016,08,16,12,23,22.90
2016,08,16,12,24,23.00
2016,08,16,12,25,23.00
2016,08,16,12,26,23.10
2016,08,16,12,27,23.10
2016,08,16,12,28,23.10
2016,08,16,12,29,23.10
2016,08,16,12,30,23.10
2016,08,16,12,31,23.00
2016,08,16,12,32,22.90
2016,08,16,12,33,22.90
2016,08,16,12,34,22.80
2016,08,16,12,35,22.80
2016,08,16,12,36,22.80
2016,08,16,12,37,22.80
2016,08,16,12,38,22.80
2016,08,16,12,39,22.90
2016,08,16,12,40,22.90
2016,08,16,12,41,22.80
2016,08,16,12,42,22.70
2016,08,16,12,43,22.60
2016,08,16,12,44,22.50
2016,08,16,12,45,22.40
2016,08,16,12,46,22.30
2016,08,16,12,47,22.30
2016,08,16,12,48,22.40
2016,08,16,12,49,22.40
2016,08,16,12,50,22.40
2016,08,16,12,51,22.30
2016,08,16,12,52,22.10
2016,08,16,12,53,22.10
2016,08,16,12,54,22.10
2016,08,16,12,55,22.20
2016,08,16,12,56,22.30
2016,08,16,12,57,22.40
2016,08,16,12,58,22.50
2016,08,16,12,59,22.50
2016,08,16,13,00,22.60
2016,08,16,13,01,22.60
2016,08,16,13,02,22.70
2016,08,16,13,03,22.80
2016,08,16,13,04,22.80
2016,08,16,13,05,22.90
2016,08,16,13,06,22.90
2016,08,16,13,07,23.00
2016,08,16,13,08,23.00
2016,08,16,13,09,23.00
2016,08,16,13,10,22.90
2016,08,16,13,11,22.80
2016,08,16,13,12,22.80
2016,08,16,13,13,22.70
2016,08,16,13,14,22.70
2016,08,16,13,15,22.70
2016,08,16,13,16,22.70
2016,08,16,13,17,22.70
2016,08,16,13,18,22.80
2016,08,16,13,19,22.80
2016,08,16,13,20,22.80
2016,08,16,13,21,22.80
2016,08,16,13,22,22.90
2016,08,16,13,23,22.90
2016,08,16,13,24,22.80
2016,08,16,13,25,22.90
2016,08,16,13,26,23.10
2016,08,16,13,27,23.20
2016,08,16,13,28,23.30
2016,08,16,13,29,23.30
2016,08,16,13,30,23.20
2016,08,16,13,31,23.10
2016,08,16,13,32,23.00
2016,08,16,13,33,23.00
2016,08,16,13,34,23.00
2016,08,16,13,35,23.00
2016,08,16,13,36,22.90
2016,08,16,13,37,22.80
2016,08,16,13,38,22.60
2016,08,16,13,39,22.50
2016,08,16,13,40,22.40
2016,08,16,13,41,22.30
2016,08,16,13,42,22.20
2016,08,16,13,43,22.10
2016,08,16,13,44,22.10
2016,08,16,13,45,22.10
2016,08,16,13,46,22.10
2016,08,16,13,47,22.20
2016,08,16,13,48,22.30
2016,08,16,13,49,22.40
2016,08,16,13,50,22.60
2016,08,16,13,51,22.70
2016,08,16,13,52,22.80
2016,08,16,13,53,22.90
2016,08,16,13,54,22.80
2016,08,16,13,55,22.60
2016,08,16,13,56,22.50
2016,08,16,13,57,22.40
2016,08,16,13,58,22.50
2016,08,16,13,59,22.50
2016,08,16,14,00,22.50
2016,08,16,14,01,22.60
2016,08,16,14,02,22.60
2016,08,16,14,03,22.60
2016,08,16,14,04,22.60
2016,08,16,14,05,22.40
2016,08,16,14,06,22.40
2016,08,16,14,07,22.30
2016,08,16,14,08,22.30
2016,08,16,14,09,22.30
2016,08,16,14,10,22.40
2016,08,16,14,11,22.50
2016,08,16,14,12,22.60
2016,08,16,14,13,22.70
2016,08,16,14,14,22.70
2016,08,16,14,15,22.60
2016,08,16,14,16,22.60
2016,08,16,14,17,22.60
2016,08,16,14,18,22.60
2016,08,16,14,19,22.70
2016,08,16,14,20,22.70
2016,08,16,14,21,22.80
2016,08,16,14,22,22.70
2016,08,16,14,23,22.80
2016,08,16,14,24,22.80
2016,08,16,14,25,22.90
2016,08,16,14,26,22.90
2016,08,16,14,27,23.00
2016,08,16,14,28,23.10
2016,08,16,14,29,23.10
2016,08,16,14,30,23.10
2016,08,16,14,31,23.20
2016,08,16,14,32,23.30
2016,08,16,14,33,23.30
2016,08,16,14,34,23.20
2016,08,16,14,35,23.10
2016,08,16,14,36,23.00
2016,08,16,14,37,22.90
2016,08,16,14,38,22.90
2016,08,16,14,39,22.80
2016,08,16,14,40,22.80
2016,08,16,14,41,22.80
2016,08,16,14,42,22.80
2016,08,16,14,43,22.70
2016,08,16,14,44,22.70
2016,08,16,14,45,22.70
2016,08,16,14,46,22.70
2016,08,16,14,47,22.80
2016,08,16,14,48,22.90
2016,08,16,14,49,22.90
2016,08,16,14,50,22.90
2016,08,16,14,51,22.90
2016,08,16,14,52,22.80
2016,08,16,14,53,22.70
2016,08,16,14,54,22.70
2016,08,16,14,55,22.70
2016,08,16,14,56,22.80
2016,08,16,14,57,22.80
2016,08,16,14,58,22.80
2016,08,16,14,59,22.80
2016,08,16,15,00,22.90
2016,08,16,15,01,22.90
2016,08,16,15,02,22.90
2016,08,16,15,03,22.90
2016,08,16,15,04,22.80
2016,08,16,15,05,22.80
2016,08,16,15,06,22.90
2016,08,16,15,07,23.00
2016,08,16,15,08,23.00
2016,08,16,15,09,23.10
2016,08,16,15,10,23.00
2016,08,16,15,11,23.00
2016,08,16,15,12,23.00
2016,08,16,15,13,23.10
2016,08,16,15,14,23.20
2016,08,16,15,15,23.20
2016,08,16,15,16,23.30
2016,08,16,15,17,23.40
2016,08,16,15,18,23.40
2016,08,16,15,19,23.40
2016,08,16,15,20,23.50
2016,08,16,15,21,23.50
2016,08,16,15,22,23.60
2016,08,16,15,23,23.70
2016,08,16,15,24,23.70
2016,08,16,15,25,23.70
2016,08,16,15,26,23.60
2016,08,16,15,27,23.50
2016,08,16,15,28,23.50
2016,08,16,15,29,23.40
2016,08,16,15,30,23.30
2016,08,16,15,31,23.30
2016,08,16,15,32,23.20
2016,08,16,15,33,23.20
2016,08,16,15,34,23.20
2016,08,16,15,35,23.10
2016,08,16,15,36,22.90
2016,08,16,15,37,22.80
2016,08,16,15,38,22.80
2016,08,16,15,39,22.70
2016,08,16,15,40,22.80
2016,08,16,15,41,22.80
2016,08,16,15,42,22.80
2016,08,16,15,43,22.80
2016,08,16,15,44,22.80
2016,08,16,15,45,22.80
2016,08,16,15,46,22.90
2016,08,16,15,47,23.00
2016,08,16,15,48,23.10
2016,08,16,15,49,23.10
2016,08,16,15,50,23.10
2016,08,16,15,51,23.20
2016,08,16,15,52,23.20
2016,08,16,15,53,23.30
2016,08,16,15,54,23.30
2016,08,16,15,55,23.30
2016,08,16,15,56,23.20
2016,08,16,15,57,23.20
2016,08,16,15,58,23.10
2016,08,16,15,59,23.10
2016,08,16,16,00,23.10
2016,08,16,16,01,23.10
2016,08,16,16,02,23.10
2016,08,16,16,03,23.10
2016,08,16,16,04,23.10
2016,08,16,16,05,23.10
2016,08,16,16,06,23.10
2016,08,16,16,07,23.20
2016,08,16,16,08,23.20
2016,08,16,16,09,23.30
2016,08,16,16,10,23.30
2016,08,16,16,11,23.30
2016,08,16,16,12,23.40
2016,08,16,16,13,23.40
2016,08,16,16,14,23.40
2016,08,16,16,15,23.30
2016,08,16,16,16,23.30
2016,08,16,16,17,23.20
2016,08,16,16,18,23.20
2016,08,16,16,19,23.10
2016,08,16,16,20,23.00
2016,08,16,16,21,22.90
2016,08,16,16,22,22.80
2016,08,16,16,23,22.70
2016,08,16,16,24,22.70
2016,08,16,16,25,22.70
2016,08,16,16,26,22.70
2016,08,16,16,27,22.80
2016,08,16,16,28,22.80
2016,08,16,16,29,22.80
2016,08,16,16,30,22.90
2016,08,16,16,31,22.90
2016,08,16,16,32,22.90
2016,08,16,16,33,23.00
2016,08,16,16,34,23.00
2016,08,16,16,35,23.10
2016,08,16,16,36,23.10
2016,08,16,16,37,23.20
2016,08,16,16,38,23.20
2016,08,16,16,39,23.20
2016,08,16,16,40,23.20
2016,08,16,16,41,23.20
2016,08,16,16,42,23.30
2016,08,16,16,43,23.30
2016,08,16,16,44,23.40
2016,08,16,16,45,23.40
2016,08,16,16,46,23.30
2016,08,16,16,47,23.30
2016,08,16,16,48,23.20
2016,08,16,16,49,23.20
2016,08,16,16,50,23.10
2016,08,16,16,51,23.20
2016,08,16,16,52,23.20
2016,08,16,16,53,23.20
2016,08,16,16,54,23.20
2016,08,16,16,55,23.20
2016,08,16,16,56,23.20
2016,08,16,16,57,23.20
2016,08,16,16,58,23.20
2016,08,16,16,59,23.20
2016,08,16,17,00,23.20
2016,08,16,17,01,23.20
2016,08,16,17,02,23.30
2016,08,16,17,03,23.20
2016,08,16,17,04,23.10
2016,08,16,17,05,23.00
2016,08,16,17,06,22.80
2016,08,16,17,07,22.70
2016,08,16,17,08,22.60
2016,08,16,17,09,22.50
2016,08,16,17,10,22.40
2016,08,16,17,11,22.30
2016,08,16,17,12,22.20
2016,08,16,17,13,22.20
2016,08,16,17,14,22.20
2016,08,16,17,15,22.20
2016,08,16,17,16,22.20
2016,08,16,17,17,22.20
2016,08,16,17,18,22.30
2016,08,16,17,19,22.30
2016,08,16,17,20,22.30
2016,08,16,17,21,22.40
2016,08,16,17,22,22.40